15min,AgWx,beryljct,423,28JUN2020:00:00:00,80.1,12.92,80.3,80.3,79.8,80.3,79.5,22,22,21,0.772,37.7,38.2,37.1,18.2,15.9,199,9.8,22.9,0.00173,0.00216,68.4,69.8,11,0,.,.,13.47,0.00,0.00
15min,AgWx,beryljct,423,28JUN2020:00:15:00,80.2,12.91,79.6,80.1,80.0,80.4,79.7,22,23,21,0.783,38.2,38.5,37.4,14.14,16.1,202,9.7,23.2,0.00175,0.00218,68.2,69.7,12,0,.,.,13.46,0.00,0.00
15min,AgWx,beryljct,423,28JUN2020:00:30:00,80.1,12.91,79.5,79.7,79.6,80.0,79.4,23,24,22,0.796,38.5,39.1,38.0,15.56,14.7,200,8.5,21.2,0.00163,0.00205,68.0,69.6,11,0,.,.,13.46,0.00,0.00
15min,AgWx,beryljct,423,28JUN2020:00:45:00,80.1,12.91,78.9,79.3,79.6,80.0,79.3,23,24,23,0.813,38.9,39.3,38.4,12.91,17.1,207,8.3,23.9,0.00176,0.00218,67.8,69.5,11,0,.,.,13.47,0.00,0.00
15min,AgWx,beryljct,423,28JUN2020:01:00:00,80.0,12.89,78.5,79.6,79.3,79.6,79.0,24,24,23,0.827,39.2,39.7,38.7,11.38,17.9,208,10,26.4,0.00178,0.00219,67.6,69.4,11,0,.,.,13.47,0.00,0.00
15min,AgWx,beryljct,423,28JUN2020:01:15:00,79.9,12.88,79.0,78.9,79.1,79.4,78.7,24,25,24,0.823,39.8,40.3,39.4,19.8,17.4,203,8.8,22.9,0.00173,0.00213,67.5,69.3,11,0,.,.,13.47,0.00,0.00
15min,AgWx,beryljct,423,28JUN2020:01:30:00,79.6,12.88,77.2,78.1,78.6,79.1,78.0,25,26,24,0.858,40.0,40.6,39.5,8.53,15.0,203,8.4,23.5,0.00157,0.00197,67.3,69.2,11,0,.,.,13.47,0.00,0.00
15min,AgWx,beryljct,423,28JUN2020:01:45:00,79.2,12.87,77.7,77.8,77.8,78.1,77.4,26,27,25,0.865,40.5,41.2,39.8,16.16,14.3,208,10,22.2,0.00146,0.00184,67.1,69.2,11,0,.,.,13.47,0.00,0.00
15min,AgWx,beryljct,423,28JUN2020:02:00:00,78.9,12.86,77.9,77.7,77.8,78.1,77.5,27,27,26,0.870,40.9,41.4,40.5,18.17,16.4,201,9.7,24.4,0.00158,0.00195,67.0,69.1,11,0,.,.,13.47,0.00,0.00
15min,AgWx,beryljct,423,28JUN2020:02:15:00,78.7,12.86,77.0,77.2,77.6,77.8,77.2,27,28,27,0.887,41.1,41.5,40.8,13.04,16.1,199,9.1,22.4,0.00155,0.00192,66.8,69.0,11,0,.,.,13.47,0.00,0.00
15min,AgWx,beryljct,423,28JUN2020:02:30:00,78.3,12.86,77.4,77.3,77.0,77.3,76.6,28,29,28,0.893,41.6,41.9,41.2,17.06,14.7,200,7.0,22.2,0.00143,0.00179,66.7,68.9,11,0,.,.,13.47,0.00,0.00
15min,AgWx,beryljct,423,28JUN2020:02:45:00,77.9,12.82,76.0,76.2,76.7,77.5,76.1,29,30,28,0.911,41.9,42.3,41.5,12.76,12.5,198,7.7,19.3,0.00128,0.00164,66.6,68.8,11,0,.,.,13.47,0.00,0.00
15min,AgWx,beryljct,423,28JUN2020:03:00:00,77.5,12.82,76.4,76.7,76.6,76.9,76.1,29,29,29,0.916,42.0,42.4,41.6,13.77,16.3,201,8.9,23.1,0.00148,0.00183,66.5,68.7,11,0,.,.,13.47,0.00,0.00
15min,AgWx,beryljct,423,28JUN2020:03:15:00,77.4,12.83,76.0,76.4,76.5,76.7,76.3,30,30,29,0.928,42.4,42.9,42.1,13.2,16.1,201,9.6,24.8,0.00146,0.00180,66.4,68.6,11,0,.,.,13.47,0.00,0.00
15min,AgWx,beryljct,423,28JUN2020:03:30:00,77.1,12.83,76.0,76.0,76.2,76.4,76.0,30,30,30,0.918,42.5,42.9,42.3,15.7,15.5,199,8.5,21.8,0.00141,0.00175,66.2,68.5,11,0,.,.,13.47,0.00,0.00
15min,AgWx,beryljct,423,28JUN2020:03:45:00,76.8,12.82,75.3,75.1,75.8,76.3,75.1,30,31,30,0.912,42.4,42.8,42.2,15.52,14.3,192,8.3,19.1,0.00133,0.00166,66.1,68.4,11,0,.,.,13.47,0.00,0.00
15min,AgWx,beryljct,423,28JUN2020:04:00:00,76.3,12.82,74.7,74.6,74.6,75.1,74.3,31,32,31,0.915,42.3,42.7,42.0,15.94,13.7,187,6.7,20.4,0.00124,0.00156,66.0,68.4,11,0,.,.,13.47,0.00,0.00
15min,AgWx,beryljct,423,28JUN2020:04:15:00,75.8,12.82,73.6,73.9,74.2,74.7,73.8,32,33,31,0.925,42.4,42.7,42.1,11.31,12.6,189,7.8,16.0,0.00116,0.00147,65.9,68.3,11,0,.,.,13.47,0.00,0.00
15min,AgWx,beryljct,423,28JUN2020:04:30:00,75.3,12.81,75.1,74.9,74.4,74.9,73.8,32,33,31,0.926,42.8,43.1,42.5,16.97,13.8,189,9.2,20.5,0.00250,0.00437,65.7,68.2,11,0,.,.,13.47,0.00,0.00
15min,AgWx,beryljct,423,28JUN2020:04:45:00,75.3,12.8,74.9,75.1,74.9,75.3,74.6,32,32,31,0.936,42.8,43.2,42.6,13.55,15.8,192,8.5,21.7,0.00283,0.00495,65.6,68.1,11,0,.,.,13.47,0.00,0.00
15min,AgWx,beryljct,423,28JUN2020:05:00:00,75.4,12.81,75.4,75.4,75.1,75.4,74.8,31,32,31,0.932,42.9,43.2,42.6,18.57,17.4,192,8.5,23.5,0.00303,0.00530,65.5,68.1,11,0,.,.,13.47,0.00,0.00
15min,AgWx,beryljct,423,28JUN2020:05:15:00,75.5,12.81,74.8,74.8,75.2,75.6,74.7,32,32,31,0.935,43.0,43.3,42.7,17.19,17.9,199,9.1,26.1,0.00310,0.00542,65.4,68.0,11,1,.,.,13.47,0.00,0.00
15min,AgWx,beryljct,423,28JUN2020:05:30:00,75.4,12.8,75.0,74.9,74.8,75.1,74.3,32,33,32,0.937,43.0,43.5,42.8,19.93,18.2,196,7.8,25.1,0.00312,0.00544,65.3,67.9,11,6,.,.,13.47,0.00,0.00
15min,AgWx,beryljct,423,28JUN2020:05:45:00,75.4,12.81,74.1,74.4,74.7,75.1,74.1,32,33,32,0.962,43.3,43.8,42.9,15.08,17.4,197,9.0,27.6,0.00307,0.00530,65.2,67.8,11,18,.,.,13.47,0.00,0.00
15min,AgWx,beryljct,423,28JUN2020:06:00:00,75.2,12.82,74.5,74.6,74.4,74.7,74.1,33,34,33,0.972,43.6,44.2,43.3,18.09,18.4,198,7.5,25.0,0.00324,0.00552,65.1,67.8,11,37,.,.,13.47,0.00,0.00
15min,AgWx,beryljct,423,28JUN2020:06:15:00,75.3,12.83,74.8,74.3,74.4,74.9,74.0,34,35,32,0.968,44.0,44.6,43.4,26.31,19.2,199,9.5,26.3,0.00344,0.00577,65.0,67.7,11,65,.,.,13.47,0.00,0.00
15min,AgWx,beryljct,423,28JUN2020:06:30:00,75.4,12.83,74.3,73.7,74.2,74.6,73.5,35,37,33,1.005,44.5,45.5,43.7,18.98,18.2,197,10,27.8,0.00346,0.00570,64.9,67.6,11,100,.,.,13.47,0.00,0.00
15min,AgWx,beryljct,423,28JUN2020:06:45:00,75.7,12.83,75.0,74.3,74.2,74.7,73.7,35,36,34,1.018,44.8,45.6,44.1,22.27,19.7,201,8.9,26.5,0.00375,0.00610,64.8,67.6,11,148,.,.,13.47,0.00,0.00
15min,AgWx,beryljct,423,28JUN2020:07:00:00,76.0,12.85,74.4,74.5,74.4,74.8,74.0,35,38,35,1.028,45.4,46.6,44.7,16.53,18.3,202,8.9,25.2,0.00374,0.00598,64.8,67.5,11,172,.,.,13.47,0.00,0.00
15min,AgWx,beryljct,423,28JUN2020:07:15:00,76.4,12.88,74.0,74.4,74.7,75.0,74.2,35,37,34,1.037,45.4,46.3,44.7,17.52,20.0,198,8.7,28.3,0.00411,0.00651,64.7,67.4,11,218,.,.,13.47,0.00,0.00
15min,AgWx,beryljct,423,28JUN2020:07:30:00,76.8,12.92,75.5,75.3,74.7,75.4,74.1,36,38,34,1.077,45.9,46.9,44.6,20.26,20.1,198,12,28.5,0.00436,0.00675,64.7,67.3,11,282,.,.,13.47,0.00,0.00
15min,AgWx,beryljct,423,28JUN2020:07:45:00,77.3,12.97,75.3,75.3,75.3,75.6,75.0,36,38,35,1.095,46.6,47.4,45.8,20.34,17.9,194,10,24.0,0.00432,0.00656,64.7,67.3,11,303,.,.,13.47,0.00,0.00
15min,AgWx,beryljct,423,28JUN2020:08:00:00,77.7,13.03,76.0,75.9,75.6,76.0,75.1,36,37,35,1.078,46.5,47.3,45.8,16.75,20.2,190,11,28.0,0.00473,0.00721,64.7,67.2,11,339,.,.,13.47,0.00,0.00
15min,AgWx,beryljct,423,28JUN2020:08:15:00,78.5,13.13,76.6,76.6,76.5,77.1,75.6,35,37,33,1.119,46.7,47.6,45.6,14.51,18.4,188,10,23.9,0.00504,0.00745,64.7,67.2,11,418,.,.,13.47,0.00,0.00
15min,AgWx,beryljct,423,28JUN2020:08:30:00,79.4,13.23,76.7,77.0,77.0,77.3,76.6,35,36,33,1.077,46.9,47.9,46.2,27.8,22.3,191,10,30.8,0.00576,0.00852,64.7,67.1,11,498,.,.,13.46,0.00,0.00
15min,AgWx,beryljct,423,28JUN2020:08:45:00,79.8,13.32,77.1,77.2,76.9,77.5,76.4,34,36,33,1.089,46.8,47.9,46.0,20.63,22.5,187,14,30.8,0.00579,0.00858,64.7,67.0,11,495,.,.,13.47,0.00,0.00
15min,AgWx,beryljct,423,28JUN2020:09:00:00,80.1,13.43,77.1,77.4,77.3,77.5,77.0,34,36,33,1.087,46.8,48.2,46.1,18.7,22.7,190,13,33.1,0.00617,0.00902,64.8,67.0,11,564,.,.,13.47,0.00,0.00
15min,AgWx,beryljct,423,28JUN2020:09:15:00,80.8,13.48,78.2,78.4,78.0,78.6,77.4,33,35,32,1.088,46.9,48.1,45.8,23.83,20.8,191,12,28.3,0.00637,0.00914,64.9,66.9,10,614,.,.,13.47,0.00,0.00
15min,AgWx,beryljct,423,28JUN2020:09:30:00,81.6,13.5,79.8,79.4,79.0,79.4,78.3,32,35,31,1.096,46.9,48.8,45.7,21.33,19.7,186,8.8,26.8,0.00646,0.00923,65.0,66.9,10,613,.,.,13.46,0.00,0.00
15min,AgWx,beryljct,423,28JUN2020:09:45:00,82.0,13.68,79.2,79.0,79.1,79.5,78.5,32,33,30,1.049,46.4,47.8,45.5,27.51,24.9,177,10,33.3,0.00704,0.01027,65.1,66.9,10,647,.,.,13.47,0.00,0.00
15min,AgWx,beryljct,423,28JUN2020:10:00:00,82.5,13.92,79.1,80.1,80.0,80.6,79.1,31,32,29,1.084,46.5,47.5,45.3,21.26,25.4,185,9.6,33.0,0.00756,0.01094,65.3,66.8,10,723,.,.,13.46,0.00,0.00
15min,AgWx,beryljct,423,28JUN2020:10:15:00,83.0,13.89,79.7,79.4,79.7,80.5,78.7,31,34,29,1.093,46.7,48.3,44.7,17.52,23.9,198,9.8,35.7,0.00765,0.01089,65.5,66.8,10,774,.,.,13.46,0.00,0.00
15min,AgWx,beryljct,423,28JUN2020:10:30:00,83.1,13.95,79.1,79.4,79.7,80.4,79.4,31,34,29,1.114,46.5,48.5,44.4,21.83,25.0,196,12,34.7,0.00786,0.01120,65.7,66.8,10,802,.,.,13.46,0.00,0.00
15min,AgWx,beryljct,423,28JUN2020:10:45:00,83.5,13.93,81.0,81.2,80.2,81.2,79.4,31,35,29,1.135,47.0,49.1,45.8,19.29,23.5,198,11,34.1,0.00830,0.01157,66.0,66.8,10,909,.,.,13.46,0.00,0.00
15min,AgWx,beryljct,423,28JUN2020:11:00:00,83.8,13.89,78.6,79.5,80.4,81.5,79.5,30,32,28,1.077,46.2,48.2,44.5,22.56,25.6,199,11,37.3,0.00859,0.01209,66.3,66.8,10,925,.,.,13.47,0.01,0.00
15min,AgWx,beryljct,423,28JUN2020:11:15:00,83.8,13.95,81.1,81.4,80.7,81.4,79.4,29,32,26,0.965,45.4,47.0,43.4,34.26,28.9,198,10,39.2,0.00914,0.01297,66.6,66.8,10,992,.,.,13.46,0.00,0.00
15min,AgWx,beryljct,423,28JUN2020:11:30:00,83.9,13.86,79.5,80.2,80.9,81.9,80.1,27,29,25,0.983,43.7,45.4,41.9,27.67,29.1,193,9.8,37.9,0.00850,0.01242,67.0,66.8,10,788,.,.,13.47,0.01,0.00
15min,AgWx,beryljct,423,28JUN2020:11:45:00,83.8,13.87,80.4,80.5,80.4,80.9,79.8,28,29,27,1.003,44.1,45.1,43.3,25.45,28.5,189,12,36.4,0.00817,0.01196,67.4,66.8,10,749,.,.,13.46,0.00,0.00
15min,AgWx,beryljct,423,28JUN2020:12:00:00,83.6,13.88,80.4,81.4,80.1,81.6,78.7,30,32,27,1.008,45.4,47.3,44.0,29.81,24.5,197,13,34.4,0.00762,0.01099,67.8,66.8,10,718,.,.,13.46,0.00,0.00
15min,AgWx,beryljct,423,28JUN2020:12:15:00,83.6,13.47,79.0,79.5,79.9,81.2,79.2,28,32,26,0.939,44.1,46.8,41.4,26.07,26.6,200,12,40.6,0.00786,0.01146,68.2,66.9,10,729,.,.,13.46,0.00,0.00
15min,AgWx,beryljct,423,28JUN2020:12:30:00,83.3,13.49,81.1,81.3,80.0,81.5,79.3,28,30,26,0.958,43.8,45.8,42.3,27.01,27.5,203,11,38.5,0.00882,0.01255,68.6,66.9,10,941,.,.,13.46,0.01,0.00
15min,AgWx,beryljct,423,28JUN2020:12:45:00,83.6,13.45,81.7,81.9,80.8,82.1,80.0,28,31,24,0.915,44.4,46.6,42.0,34.13,26.1,204,11,36.1,0.00938,0.01307,68.9,66.9,10,1048,.,.,13.46,0.00,0.00
15min,AgWx,beryljct,423,28JUN2020:13:00:00,84.4,13.53,81.4,81.9,82.1,82.9,80.9,26,30,23,0.938,44.2,47.1,40.6,28.04,25.5,193,11,40.1,0.00936,0.01315,69.2,67.0,10,1003,.,.,13.46,0.00,0.00
15min,AgWx,beryljct,423,28JUN2020:13:15:00,84.5,13.46,81.0,81.6,80.7,81.9,79.7,27,29,26,0.969,43.8,45.5,42.4,27.21,27.0,198,10,39.6,0.00842,0.01216,69.6,67.1,10,823,.,.,13.46,0.00,0.00
15min,AgWx,beryljct,423,28JUN2020:13:30:00,84.5,13.54,80.4,81.0,80.8,81.8,80.2,27,29,24,1.051,43.6,45.9,41.0,19.93,23.8,203,9.9,33.5,0.00871,0.01224,70.0,67.2,10,939,.,.,13.47,0.00,0.00
15min,AgWx,beryljct,423,28JUN2020:13:45:00,84.3,13.49,80.8,80.7,80.5,81.2,79.4,27,31,24,0.987,43.0,46.0,40.7,25.21,25.9,207,13,34.8,0.00865,0.01233,70.4,67.3,10,906,.,.,13.47,0.00,0.00
15min,AgWx,beryljct,423,28JUN2020:14:00:00,84.3,13.45,80.5,80.8,81.4,82.1,80.7,24,27,22,0.896,41.1,43.6,39.3,19.95,27.7,201,9.3,35.6,0.00935,0.01338,70.8,67.3,10,962,.,.,13.47,0.00,0.00
15min,AgWx,beryljct,423,28JUN2020:14:15:00,84.6,13.43,83.0,82.6,82.3,83.2,80.6,24,27,22,0.860,41.8,43.9,40.1,33.19,25.1,194,12,36.0,0.00928,0.01314,71.2,67.4,11,960,.,.,13.47,0.00,0.00
15min,AgWx,beryljct,423,28JUN2020:14:30:00,84.8,13.48,80.6,80.7,81.5,82.7,80.1,24,27,22,0.890,41.8,44.4,39.5,25.28,24.9,203,11,36.1,0.00849,0.01224,71.6,67.6,10,835,.,.,13.46,0.00,0.00
15min,AgWx,beryljct,423,28JUN2020:14:45:00,84.3,13.45,80.4,80.8,80.4,81.1,79.4,26,28,24,0.869,42.0,44.5,40.6,27.97,25.6,203,10,35.6,0.00779,0.01143,72.0,67.6,10,727,.,.,13.47,0.01,0.00
15min,AgWx,beryljct,423,28JUN2020:15:00:00,84.5,13.44,81.4,81.7,81.5,82.2,80.7,24,27,22,0.878,41.4,43.4,39.8,25.78,27.0,195,9.8,35.1,0.00898,0.01293,72.3,67.8,10,901,.,.,13.46,0.00,0.00
15min,AgWx,beryljct,423,28JUN2020:15:15:00,84.8,13.52,81.7,81.8,81.4,82.2,80.8,24,26,22,0.872,41.3,43.5,39.4,31.3,25.1,200,10,39.1,0.00850,0.01226,72.6,67.9,10,835,.,.,13.46,0.00,0.00
15min,AgWx,beryljct,423,28JUN2020:15:30:00,85.1,13.43,80.7,81.3,81.8,82.2,81.1,23,26,22,0.911,40.8,43.1,38.7,16.9,24.3,197,11,36.1,0.00813,0.01188,72.9,68.0,10,761,.,.,13.46,0.00,0.00
15min,AgWx,beryljct,423,28JUN2020:15:45:00,85.0,13.44,81.6,80.5,80.9,81.6,80.4,25,26,23,0.888,41.4,43.1,39.2,25.41,24.6,205,11,34.6,0.00793,0.01157,73.2,68.1,10,753,.,.,13.46,0.00,0.00
15min,AgWx,beryljct,423,28JUN2020:16:00:00,85.2,13.39,80.4,81.4,82.0,82.9,80.6,23,26,22,0.876,40.6,42.6,39.2,23.85,24.4,193,10,34.0,0.00793,0.01167,73.4,68.3,10,717,.,.,13.46,0.00,0.00
15min,AgWx,beryljct,423,28JUN2020:16:15:00,85.4,13.47,81.3,81.1,81.5,82.4,80.7,24,26,21,0.819,40.9,42.6,38.4,29.05,23.3,198,10,32.4,0.00748,0.01105,73.6,68.4,10,670,.,.,13.46,0.00,0.00
15min,AgWx,beryljct,423,28JUN2020:16:30:00,85.1,13.44,81.0,81.3,80.9,81.4,80.5,24,26,22,0.839,40.3,42.6,38.5,29.38,26.0,194,8.0,37.4,0.00736,0.01113,73.8,68.5,10,610,.,.,13.47,0.01,0.00
15min,AgWx,beryljct,423,28JUN2020:16:45:00,84.8,13.47,79.6,80.1,80.7,81.3,80.0,23,25,22,0.827,39.9,41.7,38.2,29.75,25.6,197,16,40.3,0.00720,0.01093,74.0,68.6,10,588,.,.,13.47,0.00,0.00
15min,AgWx,beryljct,423,28JUN2020:17:00:00,84.3,13.47,78.6,79.7,80.1,80.7,79.7,24,26,22,0.870,39.7,41.4,38.2,20.17,26.0,197,12,36.3,0.00694,0.01065,74.1,68.8,10,546,.,.,13.46,0.00,0.00
15min,AgWx,beryljct,423,28JUN2020:17:15:00,83.7,13.47,79.9,79.5,79.7,80.1,79.3,24,26,23,0.834,40.2,42.0,38.7,19.82,24.8,199,12,33.8,0.00649,0.01001,74.1,68.9,10,497,.,.,13.46,0.00,0.00
15min,AgWx,beryljct,423,28JUN2020:17:30:00,83.3,13.49,79.1,79.1,79.5,80.2,79.0,25,27,23,0.814,40.2,42.0,39.0,26.22,25.9,202,12,36.8,0.00630,0.00987,74.2,69.0,10,447,.,.,13.47,0.01,0.00
15min,AgWx,beryljct,423,28JUN2020:17:45:00,82.8,13.26,78.0,78.9,79.1,79.5,78.7,26,27,23,0.924,41.0,42.5,39.0,20.26,24.7,203,8.5,36.5,0.00584,0.00924,74.1,69.1,11,394,.,.,13.46,0.00,0.00
15min,AgWx,beryljct,423,28JUN2020:18:00:00,82.4,13.15,78.9,78.6,78.8,79.2,78.4,28,30,26,0.955,42.9,44.6,41.6,24.07,24.0,195,13,34.1,0.00535,0.00856,74.1,69.2,11,342,.,.,13.46,0.00,0.00
15min,AgWx,beryljct,423,28JUN2020:18:15:00,82.0,13.11,78.0,78.4,78.5,78.9,78.1,28,30,27,0.922,42.9,44.6,41.7,19.44,24.3,201,11,34.8,0.00511,0.00832,73.9,69.4,10,296,.,.,13.46,0.00,0.00
15min,AgWx,beryljct,423,28JUN2020:18:30:00,81.6,13.07,77.4,77.9,78.2,78.7,77.8,29,31,27,0.973,43.2,44.8,42.2,20.34,21.1,197,12,34.6,0.00443,0.00729,73.8,69.4,10,243,.,.,13.46,0.00,0.00
15min,AgWx,beryljct,423,28JUN2020:18:45:00,81.1,13.06,77.1,77.6,77.8,78.1,77.4,30,31,28,0.927,43.6,44.5,42.6,26.22,22.1,195,10,32.1,0.00421,0.00708,73.6,69.5,11,195,.,.,13.47,0.01,0.00
15min,AgWx,beryljct,423,28JUN2020:19:00:00,80.6,13.03,76.9,77.1,77.3,77.9,76.4,30,34,28,1.000,43.8,45.9,41.8,16.84,23.0,199,14,38.0,0.00404,0.00695,73.4,69.6,11,151,.,.,13.46,0.00,0.00
15min,AgWx,beryljct,423,28JUN2020:19:15:00,80.0,13.03,76.7,76.6,76.7,77.3,76.1,32,33,31,0.990,44.7,45.9,43.9,22.71,20.1,192,11,28.8,0.00174,0.00207,73.2,69.7,11,108,.,.,13.47,0.01,0.00
15min,AgWx,beryljct,423,28JUN2020:19:30:00,79.2,13.02,75.9,76.3,76.7,77.1,76.3,32,34,31,1.034,44.6,45.8,43.9,18.83,23.9,189,9.9,31.7,0.00180,0.00211,73.0,69.8,11,68,.,.,13.47,0.00,0.00
15min,AgWx,beryljct,423,28JUN2020:19:45:00,78.4,12.98,76.2,76.1,76.2,76.6,75.7,33,34,31,0.991,44.8,45.9,43.7,18.63,21.7,195,8.6,33.9,0.00164,0.00194,72.8,69.8,11,27,.,.,13.47,0.00,0.00
15min,AgWx,beryljct,423,28JUN2020:20:00:00,77.7,12.98,76.5,76.5,76.1,76.6,75.9,32,33,31,0.976,44.0,44.6,43.4,19.44,20.5,195,10,29.9,0.00159,0.00190,72.6,69.8,10,7,.,.,13.47,0.00,0.00
15min,AgWx,beryljct,423,28JUN2020:20:15:00,77.4,12.98,76.1,76.2,76.4,76.6,76.1,31,32,30,0.936,43.3,44.0,42.8,19.44,21.9,194,12,36.5,0.00167,0.00198,72.3,69.9,11,2,.,.,13.47,0.00,0.00
15min,AgWx,beryljct,423,28JUN2020:20:30:00,77.1,12.96,75.7,76.1,76.0,76.3,75.7,31,31,30,0.927,42.9,43.6,42.2,15.56,18.7,193,13,27.4,0.00153,0.00186,72.0,69.9,11,0,.,.,13.47,0.00,0.00
15min,AgWx,beryljct,423,28JUN2020:20:45:00,76.9,12.96,76.2,76.3,76.3,76.6,75.9,29,30,28,0.894,42.0,42.9,41.4,22.1,21.3,195,11,32.2,0.00167,0.00198,71.8,69.9,11,0,.,.,13.47,0.00,0.00
15min,AgWx,beryljct,423,28JUN2020:21:00:00,76.7,12.96,76.3,76.0,75.9,76.3,75.4,29,30,28,0.862,41.2,42.0,40.3,25.91,20.6,188,10,33.5,0.00164,0.00196,71.5,69.9,11,0,.,.,13.47,0.00,0.00
15min,AgWx,beryljct,423,28JUN2020:21:15:00,76.5,12.96,76.5,76.1,75.9,76.1,75.6,28,29,27,0.817,40.3,41.1,39.4,29.99,23.4,189,10,34.3,0.00176,0.00207,71.3,69.9,10,0,.,.,13.47,0.00,0.00
15min,AgWx,beryljct,423,28JUN2020:21:30:00,76.4,12.94,76.0,75.8,76.0,76.4,75.7,27,28,26,0.823,39.7,40.1,39.3,26.02,23.9,191,10,32.4,0.00180,0.00211,71.1,69.9,11,0,.,.,13.47,0.00,0.00
15min,AgWx,beryljct,423,28JUN2020:21:45:00,76.2,12.96,75.5,75.3,75.5,75.9,75.1,27,28,26,0.793,39.2,39.8,38.3,26.31,20.5,192,9.9,30.7,0.00166,0.00199,70.8,69.9,11,0,.,.,13.48,0.01,0.00
15min,AgWx,beryljct,423,28JUN2020:22:00:00,76.0,12.95,74.6,75.0,75.2,75.6,74.8,26,27,25,0.773,38.0,38.7,37.5,16.68,21.1,189,9.7,31.7,0.00170,0.00202,70.6,69.9,10,0,.,.,13.47,0.00,0.00
15min,AgWx,beryljct,423,28JUN2020:22:15:00,75.8,12.94,75.2,75.3,75.3,75.6,75.0,25,26,25,0.756,37.3,38.1,37.0,23.41,25.1,189,9.4,32.8,0.00184,0.00215,70.4,69.9,11,0,.,.,13.46,0.00,0.00
15min,AgWx,beryljct,423,28JUN2020:22:30:00,75.5,12.93,73.6,74.2,74.6,75.3,74.0,26,26,25,0.754,37.3,37.8,36.9,15.48,19.6,190,8.8,27.8,0.00163,0.00195,70.1,69.9,11,0,.,.,13.47,0.01,0.00
15min,AgWx,beryljct,423,28JUN2020:22:45:00,75.1,12.92,73.7,73.8,74.0,74.3,73.8,26,27,26,0.760,37.2,37.6,36.8,19.23,19.0,189,9.5,27.5,0.00157,0.00188,69.9,69.8,11,0,.,.,13.47,0.00,0.00
15min,AgWx,bigpiney,439,28JUN2020:00:00:00,62.4,12.73,59.0,59.0,59.0,59.6,58.5,57,59,56,0.959,44.0,44.5,43.3,16.2,16.4,262,12,26.0,0.00061,0.00071,56.9,50.9,55,0,0,0.0,7.75,0.00,0.00
15min,AgWx,bigpiney,439,28JUN2020:00:15:00,62.2,12.72,57.4,57.8,58.5,59.2,57.8,58,61,56,0.994,44.0,44.4,43.3,8.35,13.9,257,14,22.7,0.00055,0.00066,56.9,50.9,55,0,0,0.0,7.75,0.00,0.00
15min,AgWx,bigpiney,439,28JUN2020:00:30:00,61.8,12.72,56.9,56.8,57.0,57.7,56.4,64,65,61,1.003,44.7,45.1,44.3,11.79,9.5,237,11,13.0,0.00037,0.00047,56.8,50.9,55,0,0,0.0,7.75,0.00,0.00
15min,AgWx,bigpiney,439,28JUN2020:00:45:00,61.3,12.71,57.5,57.4,57.0,57.4,56.8,63,64,61,0.985,44.4,44.8,44.0,8.33,8.5,236,13,12.2,0.00036,0.00046,56.8,50.9,55,0,0,0.0,7.75,0.00,0.00
15min,AgWx,bigpiney,439,28JUN2020:01:00:00,61.0,12.71,58.3,58.5,58.2,58.8,57.4,58,61,56,0.951,43.6,44.2,43.1,6.708,8.2,256,13,11.4,0.00041,0.00053,56.7,51.0,55,0,0,0.0,7.75,0.00,0.00
15min,AgWx,bigpiney,439,28JUN2020:01:15:00,61.0,12.69,58.4,58.3,58.4,58.7,58.1,57,58,56,0.956,43.4,43.7,43.0,8.83,7.9,266,11,10.7,0.00041,0.00053,56.7,51.0,55,0,0,0.0,7.75,0.00,0.00
15min,AgWx,bigpiney,439,28JUN2020:01:30:00,61.0,12.68,58.6,58.6,58.4,58.6,58.3,57,58,56,0.939,43.2,43.6,42.9,5.437,7.6,272,11,10.2,0.00041,0.00054,56.6,51.0,55,0,0,0.0,7.75,0.00,0.00
15min,AgWx,bigpiney,439,28JUN2020:01:45:00,61.0,12.67,58.8,58.7,58.8,59.0,58.6,55,56,54,0.943,42.8,43.1,42.6,9.4,6.5,283,13,9.4,0.00038,0.00051,56.6,51.0,55,0,0,0.0,7.75,0.00,0.00
15min,AgWx,bigpiney,439,28JUN2020:02:00:00,61.0,12.67,57.6,58.0,58.7,59.1,58.0,56,59,55,0.968,43.3,43.8,42.9,2.477,5.4,275,18,10.8,0.00032,0.00045,56.5,51.0,55,0,0,0.0,7.75,0.00,0.00
15min,AgWx,bigpiney,439,28JUN2020:02:15:00,60.9,12.67,57.4,57.7,57.4,58.0,56.8,61,64,59,0.966,44.1,44.9,43.3,4.998,3.6,259,12,8.1,0.00018,0.00027,56.4,51.0,55,0,0,0.0,7.75,0.00,0.00
15min,AgWx,bigpiney,439,28JUN2020:02:30:00,60.8,12.65,57.0,57.1,57.7,58.0,57.1,60,62,59,0.985,44.0,44.5,43.6,3.749,6.8,249,13,11.2,0.00034,0.00045,56.3,51.0,55,0,0,0.0,7.75,0.00,0.00
15min,AgWx,bigpiney,439,28JUN2020:02:45:00,60.4,12.64,54.4,54.4,55.8,57.2,54.4,67,71,62,1.010,44.8,45.4,44.3,4.253,3.7,216,13,5.2,0.00015,0.00022,56.2,51.1,55,0,0,0.0,7.75,0.00,0.00
15min,AgWx,bigpiney,439,28JUN2020:03:00:00,59.8,12.63,53.5,54.1,54.6,55.2,54.1,70,72,67,1.032,45.0,45.5,44.6,2.236,2.4,234,22,4.2,0.00006,0.00010,56.2,51.0,55,0,0,0.0,7.75,0.00,0.00
15min,AgWx,bigpiney,439,28JUN2020:03:15:00,59.0,12.63,54.5,55.0,54.5,55.4,53.6,70,73,66,1.016,44.8,45.4,44.0,3.31,1.1,245,48,3.3,-0.00002,-0.00002,56.1,51.1,55,0,0,0.0,7.75,0.00,0.00
15min,AgWx,bigpiney,439,28JUN2020:03:30:00,58.3,12.62,54.4,54.1,54.0,55.0,53.7,72,73,69,1.008,45.1,45.6,44.7,2.718,2.4,295,24,4.0,0.00005,0.00009,56.0,51.0,55,0,0,0.0,7.75,0.00,0.00
15min,AgWx,bigpiney,439,28JUN2020:03:45:00,57.8,12.61,53.7,53.9,54.2,54.9,53.8,70,72,67,0.997,44.6,45.0,44.1,4.297,4.6,289,7.5,5.8,0.00015,0.00022,56.0,51.1,55,0,0,0.0,7.75,0.00,0.00
15min,AgWx,bigpiney,439,28JUN2020:04:00:00,57.5,12.61,53.2,53.2,53.7,54.1,53.2,71,73,69,1.007,44.6,44.9,44.3,3.968,4.1,303,11,5.2,0.00013,0.00019,55.9,51.1,55,0,0,0.0,7.75,0.00,0.00
15min,AgWx,bigpiney,439,28JUN2020:04:15:00,57.2,12.6,53.9,54.0,53.7,54.2,53.1,72,73,71,1.012,44.8,45.0,44.7,3.069,4.3,286,8.1,5.9,0.00013,0.00019,55.9,51.1,55,0,0,0.0,7.75,0.00,0.00
15min,AgWx,bigpiney,439,28JUN2020:04:30:00,57.1,12.59,51.9,52.2,53.5,54.0,52.2,73,78,71,1.035,45.1,45.5,44.8,2.017,2.3,243,50,3.9,0.00004,0.00007,55.8,51.1,55,0,0,0.0,7.75,0.00,0.00
15min,AgWx,bigpiney,439,28JUN2020:04:45:00,56.8,12.58,51.4,51.1,51.5,52.2,50.9,82,85,78,1.070,46.1,46.7,45.3,1.798,1.7,112,35,3.9,-0.00002,-0.00002,55.7,51.1,55,1,0,0.0,7.75,0.00,0.00
15min,AgWx,bigpiney,439,28JUN2020:05:00:00,56.4,12.57,52.1,52.3,52.1,52.6,51.2,79,84,77,1.078,46.0,46.6,45.6,1.754,0.8,127,43,1.8,0.00006,0.00009,55.7,51.1,55,2,0,0.0,7.75,0.00,0.00
15min,AgWx,bigpiney,439,28JUN2020:05:15:00,56.1,12.56,52.4,52.5,52.4,52.7,52.1,79,82,77,1.040,46.0,47.0,45.5,1.184,1.1,151,25,1.8,0.00005,0.00009,55.6,51.1,55,8,0,0.0,7.75,0.00,0.00
15min,AgWx,bigpiney,439,28JUN2020:05:30:00,55.8,12.6,52.6,52.6,52.5,52.8,52.2,79,80,77,1.074,46.1,46.6,45.7,0,0.5,86,18,1.8,-0.00001,0.00001,55.5,51.1,55,26,0,0.0,7.75,0.00,0.00
15min,AgWx,bigpiney,439,28JUN2020:05:45:00,55.6,12.6,52.4,52.4,52.3,52.7,52.0,81,83,78,1.115,46.6,47.4,45.9,3.529,1.6,179,16,3.5,0.00014,0.00020,55.5,51.1,55,51,0,0.0,7.75,0.00,0.00
15min,AgWx,bigpiney,439,28JUN2020:06:00:00,55.7,12.63,52.4,52.2,52.4,52.6,52.2,84,85,83,1.121,47.6,47.9,47.4,4.932,3.4,218,16,5.8,0.00032,0.00043,55.4,51.1,55,60,0,0.0,7.75,0.00,0.00
15min,AgWx,bigpiney,439,28JUN2020:06:15:00,55.8,12.72,55.4,55.3,53.9,55.3,52.3,74,84,67,0.996,45.7,47.7,44.3,0,2.2,234,23,8.0,0.00046,0.00059,55.4,51.1,55,77,0,0.0,7.75,0.00,0.00
15min,AgWx,bigpiney,439,28JUN2020:06:30:00,56.1,12.72,55.3,55.4,55.2,55.5,54.9,72,75,67,1.101,46.2,47.3,44.6,2.609,1.4,125,48,3.2,0.00053,0.00064,55.3,51.1,55,87,0,0.0,7.75,0.00,0.00
15min,AgWx,bigpiney,439,28JUN2020:06:45:00,56.6,12.62,55.7,55.0,54.7,55.4,54.4,77,78,72,1.061,47.5,48.0,46.2,1.863,3.4,94,30,6.0,0.00062,0.00079,55.2,51.1,55,79,0,0.0,7.75,0.00,0.00
15min,AgWx,bigpiney,439,28JUN2020:07:00:00,57.0,12.57,54.6,54.4,55.1,56.4,54.3,74,80,64,1.108,47.0,48.3,44.6,7.125,3.5,248,64,8.1,0.00041,0.00058,55.2,51.1,55,31,0,0.0,7.75,0.00,0.00
15min,AgWx,bigpiney,439,28JUN2020:07:15:00,57.1,12.62,53.2,53.4,53.9,54.6,53.4,79,82,76,1.146,47.6,48.2,47.1,7.76,9.9,342,17,15.3,0.00058,0.00090,55.1,51.1,55,34,1,0.0,7.75,0.00,0.00
15min,AgWx,bigpiney,439,28JUN2020:07:30:00,56.8,12.61,52.9,53.0,53.2,53.4,53.0,82,83,81,1.113,47.9,48.2,47.4,7.366,6.8,13,17,10.1,0.00048,0.00069,55.1,51.1,55,42,1,0.0,7.75,0.00,0.00
15min,AgWx,bigpiney,439,28JUN2020:07:45:00,56.5,12.84,51.9,51.8,52.4,53.0,51.8,83,86,81,1.124,47.6,47.8,47.3,5.546,6.4,360,16,10.0,0.00066,0.00086,55.0,51.1,55,84,1,0.0,7.75,0.00,0.00
15min,AgWx,bigpiney,439,28JUN2020:08:00:00,56.3,13.02,51.3,51.3,51.8,51.9,51.3,86,87,85,1.100,47.7,48.2,47.1,11.93,8.1,360,15,13.7,0.00089,0.00110,55.0,51.1,55,141,1,0.0,7.75,0.00,0.00
15min,AgWx,bigpiney,439,28JUN2020:08:15:00,56.2,13.14,50.7,50.4,51.0,51.4,50.4,86,87,85,1.071,47.1,47.7,46.3,9.67,10.4,1.4,21,17.6,0.00085,0.00109,54.9,51.1,55,131,0,0.0,7.75,0.00,0.00
15min,AgWx,bigpiney,439,28JUN2020:08:30:00,56.0,13.37,50.2,50.3,50.5,50.7,50.3,86,87,85,1.065,46.5,46.8,46.2,12.32,11.3,2.9,17,17.0,0.00118,0.00144,54.8,51.1,55,222,1,0.0,7.75,0.00,0.00
15min,AgWx,bigpiney,439,28JUN2020:08:45:00,55.8,13.46,50.6,50.4,50.3,50.4,50.1,85,86,84,1.053,46.0,46.3,45.7,11.49,11.4,9.2,11,15.8,0.00121,0.00148,54.8,51.1,55,224,1,0.0,7.75,0.00,0.00
15min,AgWx,bigpiney,439,28JUN2020:09:00:00,56.0,14.1,51.8,52.0,51.5,52.1,50.4,82,85,79,1.043,46.1,46.8,45.4,14.62,11.3,359,15,16.1,0.00194,0.00231,54.8,51.1,55,398,0,0.0,7.75,0.00,0.00